Location: �clusier
(49.9361°N, 2.7869°E)
Time: 00:33:59
(UTC+00:00)

Cosmos 1503 Rocket - Visible Passes

Search period start: 24 October 2021 00:00
Search period end: 03 November 2021 00:00
Orbit: 753 x 790 km, 74.0° (Epoch: 23 October)

Date Brightness Start Highest point End Pass type
(mag) Time Alt. Az. Time Alt. Az. Time Alt. Az.
28 Oct 6.8 20:39:44 10° N 20:39:51 11° N 20:39:51 11° N visible
29 Oct 6.6 20:04:01 10° N 20:04:27 12° N 20:04:27 12° N visible
30 Oct 6.4 19:28:28 10° N 19:29:04 12° N 19:29:04 12° N visible
31 Oct 6.3 18:53:18 10° NNE 18:53:42 11° NNE 18:53:42 11° NNE visible
31 Oct 6.7 20:33:38 10° NNW 20:34:02 12° NNW 20:34:02 12° NNW visible
01 Nov 6.4 19:57:48 10° N 19:58:41 14° N 19:58:41 14° N visible
02 Nov 6.2 19:22:05 10° N 19:23:20 15° N 19:23:20 15° N visible
02 Nov 7.0 21:03:41 10° NNW 21:03:41 10° NNW 21:03:41 10° NNW visible
